Norfolk, VA

1:36 PM EDT on March 29, 2017 (GMT -0400)
Norfolk International

Weather History for KORF - January, 2013

Change the Weather History Date:

Tuesday, January 29, 2013

  Actual Average Record
Temperature  
Mean Temperature 60 °F 41 °F  
Max Temperature 70 °F 49 °F 78 °F (1970)
Min Temperature 50 °F 33 °F 11 °F (1897)
Degree Days  
Heating Degree Days 5 24  
Month to date heating degree days 653 718  
Since 1 July heating degree days 1753 1897  
Cooling Degree Days 0 0  
Month to date cooling degree days 0 0  
Year to date cooling degree days 0 0  
Growing Degree Days 8 (Base 50)    
Moisture  
Dew Point 48 °F    
Average Humidity 70    
Maximum Humidity 86    
Minimum Humidity 53    
Precipitation  
Precipitation 0.00 in 0.11 in 2.85 in (1937)
Month to date precipitation 2.42 3.18  
Year to date precipitation 2.42 3.18  
Snow  
Snow 0.00 in 0.10 in 4.60 in (1966)
Month to date snowfall 1.6 2.4  
Since 1 July snowfall 1.6 3.6  
Snow Depth 0.00 in    
Sea Level Pressure  
Sea Level Pressure 30.12 in    
Wind  
Wind Speed 8 mph (SSW)    
Max Wind Speed 21 mph    
Max Gust Speed 28 mph    
Visibility 10 miles    
Events      
T = Trace of Precipitation, MM = Missing Value Source: NWS Daily Summary

Daily Weather History Graph

Daily Weather History Graph

Search for Another Location

Airport or City:

Trip Planner

Search our weather history database for the weather conditions in past years. The results will help you decide how hot, cold, wet, or windy it might be!

Date:

Astronomy

Jan. 29, 2013 Rise Set
Actual Time 7:09 AM EST 5:27 PM EST
Civil Twilight 6:41 AM EST 5:54 PM EST
Nautical Twilight 6:10 AM EST 6:25 PM EST
Astronomical Twilight 5:40 AM EST 6:56 PM EST
Moon 8:15 PM EST 8:10 AM EST
Length of Visible Light 11h 12m
Length of Day
10h 17m
Waning Gibbous, 94% of the Moon is Illuminated
Jan 29
Waning Gibbous
Feb 3
Last Quarter
Feb 10
New
Feb 17
First Quarter
Feb 25
Full

Hourly Weather History & Observations

Time (EST) Temp. Dew Point Humidity Pressure Visibility Wind Dir Wind Speed Gust Speed Precip Events Conditions
12:51 AM 52.0 °F 45.0 °F 77% 30.13 in 10.0 mi SW 15.0 mph 24.2 mph N/A   Clear
1:51 AM 52.0 °F 45.0 °F 77% 30.14 in 10.0 mi WSW 9.2 mph - N/A   Clear
2:51 AM 50.0 °F 45.0 °F 83% 30.13 in 10.0 mi SW 12.7 mph - N/A   Clear
3:51 AM 51.1 °F 45.0 °F 80% 30.13 in 10.0 mi WSW 13.8 mph 21.9 mph N/A   Clear
4:51 AM 50.0 °F 46.0 °F 86% 30.12 in 10.0 mi WSW 12.7 mph - N/A   Clear
5:51 AM 50.0 °F 46.0 °F 86% 30.13 in 10.0 mi WSW 15.0 mph - N/A   Clear
6:51 AM 50.0 °F 46.0 °F 86% 30.13 in 9.0 mi WSW 12.7 mph - N/A   Clear
7:51 AM 50.0 °F 46.4 °F 87% 30.15 in 7.0 mi WSW 6.9 mph - N/A   Clear
8:51 AM 53.1 °F 46.9 °F 80% 30.16 in 9.0 mi WSW 6.9 mph - N/A   Clear
9:51 AM 57.0 °F 48.0 °F 72% 30.16 in 10.0 mi WSW 8.1 mph - N/A   Clear
10:51 AM 61.0 °F 48.9 °F 64% 30.15 in 10.0 mi WSW 5.8 mph - N/A   Clear
12:51 PM 66.9 °F 50.0 °F 54% 30.11 in 10.0 mi Calm Calm - N/A   Clear
1:51 PM 69.1 °F 51.1 °F 53% 30.10 in 10.0 mi ENE 3.5 mph - N/A   Clear
2:51 PM 66.9 °F 50.0 °F 54% 30.08 in 10.0 mi NNE 4.6 mph - N/A   Clear
3:51 PM 64.9 °F 50.0 °F 58% 30.09 in 10.0 mi East 6.9 mph - N/A   Clear
4:51 PM 62.1 °F 50.0 °F 65% 30.09 in 10.0 mi SE 9.2 mph - N/A   Clear
5:51 PM 59.0 °F 48.9 °F 69% 30.10 in 10.0 mi SSE 6.9 mph - N/A   Clear
6:51 PM 57.9 °F 48.9 °F 72% 30.10 in 10.0 mi South 6.9 mph - N/A   Clear
7:51 PM 59.0 °F 50.0 °F 72% 30.09 in 10.0 mi South 8.1 mph - N/A   Clear
8:51 PM 57.0 °F 48.9 °F 74% 30.08 in 10.0 mi South 4.6 mph - N/A   Clear
9:51 PM 55.9 °F 48.9 °F 77% 30.09 in 10.0 mi SSW 6.9 mph - N/A   Clear
10:51 PM 54.0 °F 48.9 °F 83% 30.08 in 10.0 mi SSW 9.2 mph - N/A   Clear
11:51 PM 54.0 °F 50.0 °F 86% 30.09 in 9.0 mi SSW 8.1 mph - N/A   Clear